Weather Roundup
Issued by NWS Chicago, IL

Home | Current Version | Previous Version | Text Only | Print | Product List | Glossary On
Versions: 1 2 3 4 5 6 7 8 9 10 11 12 13 14 15 16 17 18 19 20 21 22 23 24 25 26 27 28 29 30 31 32 33 34 35 36 37 38 39 40 41 42 43 44 45 46 47 48 49 50
000
NZUS59 KLOT 061908
HRRLOT

CHICAGO AREA WEATHER ROUNDUP
NATIONAL WEATHER SERVICE CHICAGO/ROMEOVILLE IL
200 PM CDT WED MAY 06 2015

NOTE: "FAIR" INDICATES FEW OR NO CLOUDS BELOW 12,000 FEET WITH NO
SIGNIFICANT WEATHER AND/OR OBSTRUCTIONS TO VISIBILITY.

* THESE STATIONS ARE NOT UNDER NWS QUALITY CONTROL. THEY ALSO MAY NOT
  REPORT WEATHER SUCH AS PRECIPITATION OR FOG.

ILZ005-006-012>014-019>023-062000-
NORTHEAST ILLINOIS

CITY           SKY/WX    TMP DP  RH WIND       PRES   REMARKS
OHARE          MOSUNNY   74  58  57 NE12      30.12F
MIDWAY         PTSUNNY   81  61  50 E6        30.12F HAZE    HX  82
AURORA         SUNNY     79  60  52 S5        30.12F HX  80
LANSING*       SUNNY     80  58  48 SW6       30.13F HX  80
JOLIET*        SUNNY     82  61  48 S10       30.11F HX  83
WAUKEGAN       MOSUNNY   56  52  86 NE7       30.16F
DUPAGE AIRPORT SUNNY     78  61  55 VRB6      30.12F HX  80
WHEELING       SUNNY     64  54  69 NE8       30.16F
KANKAKEE*      MOSUNNY   79  61  53 SW5       30.13F HX  80
MORRIS*        MOSUNNY   82  58  44 S7        30.09F HX  82
LEWIS AIRPORT* MOSUNNY   80  58  46 SW6       30.12F HX  80
NORTHERLY IS     N/A     54  53  97 NE6         N/A
$$

WIZ051-052-058>065-066-070>072-062000-
SOUTHEAST WISCONSIN

CITY           SKY/WX    TMP DP  RH WIND       PRES   REMARKS
MILWAUKEE      PTSUNNY   56  51  84 E9        30.18F HAZE
KENOSHA*       PTSUNNY   59  54  83 E10       30.17F
RACINE*        CLOUDY    55  50  83 E7        30.20F HAZE
BURLINGTON     SUNNY     66  59  76 E8        30.15S HAZE
WAUKESHA       MOSUNNY   63  54  72 E7        30.17F
WEST BEND      PTSUNNY   59  52  77 E7        30.17S
$$

INZ001>003-010>013-019-020-062000-
NORTHWEST INDIANA

CITY           SKY/WX    TMP DP  RH WIND       PRES   REMARKS
GARY*          MOSUNNY   72 N/A N/A SE5       30.14F HAZE
MICHIGAN CITY* NOT AVBL
RENSSELAER*    NOT AVBL
VALPARAISO     SUNNY     80  60  50 W7        30.14F HX  81
$$

LMZ740>746-062000-
SOUTHERN LAKE MICHIGAN

STATION/POSITION TIME  SKY/WX   TEMP WIND        PRES    VSBY
                                AIR  DIR/SP/G
                 (UTC)          (F)  (DEG/KT/KT) (MB)    (MI)
HARRISON CRIB    1800            47   10/  6/  7   N/A
BURNHAM HARBOR   1900            53   10/  8/  8   N/A
CALUMET HARBOR   1800                360/  5/  8   N/A
BURNS HARBOR     1800            59   50/  7/  8 1021.7F
MICHIGAN CITY    1800            56   20/  7/  7   N/A
$$

ABBREVIATIONS USED IN REMARKS
   TC - TEMPERATURE IN CELSIUS
  WCI - WIND CHILL INDEX
   HX - HEAT INDEX
  VSB - VISIBILITY
$$



USA.gov is the U.S. government's official web portal to all federal, state and local government web resources and services.